RH
72 74 71 64 62 62 65 73 76 75 76 78 75 68 62 59 56 57 57 58 61 58 52 50 46 42 41 43 47 49 42 37 41 46 48 47 48 53 59 65 72 76 72 62 62 69 73 73 70 71 72 72 70 67 65 66 69 69 70 76 81 83 86 89 95 102 105 109 107 103 102 102 100 101 101 97 93 87 79 71 66 62 58 53 50 48
75 74 68 63 65 67 71 77 79 76 74 75 77 78 76 69 64 65 62 59 59 58 59 63 63 60 56 52 59 71 63 47 43 46 50 54 57 61 67 76 86 89 83 76 77 81 85 84 78 78 79 76 74 71 69 72 76 79 82 87 90 92 93 98 104 105 105 107 105 102 102 100 101 101 98 94 92 89 80 69 64 59 55 51 47 46
70 66 63 66 70 73 75 78 80 79 80 81 81 84 86 81 74 69 66 64 61 58 60 69 77 82 80 73 75 86 81 65 54 52 56 60 66 76 85 91 94 96 96 96 100 101 101 100 94 93 89 79 76 74 73 78 81 85 92 96 95 92 89 96 106 104 102 103 102 101 101 101 102 99 94 93 92 90 82 68 61 58 53 51 46 44
63 59 61 66 69 73 77 82 87 87 84 83 84 87 89 87 79 70 66 66 67 69 72 76 84 90 95 97 98 98 90 73 60 54 55 60 70 85 96 98 97 99 101 103 108 110 107 107 103 102 100 86 73 68 71 78 81 85 92 99 102 97 90 95 105 106 102 100 101 101 101 102 101 95 93 94 92 89 81 68 61 57 52 50 47 43
67 63 65 67 68 70 72 76 83 86 86 85 86 88 89 86 79 72 71 71 73 85 93 94 97 99 102 105 105 103 90 67 54 50 52 55 63 77 86 88 88 89 93 95 99 103 103 108 109 105 103 93 78 70 71 75 79 82 86 94 102 103 99 99 104 107 106 103 101 101 101 102 98 92 91 91 91 87 78 70 63 57 53 51 49 45
77 68 67 69 68 66 66 68 75 81 85 85 85 88 88 81 75 76 86 87 85 94 105 108 109 107 106 104 102 104 95 71 55 50 51 52 60 73 73 68 71 81 90 91 91 96 100 107 111 104 95 89 82 78 76 76 78 79 82 90 100 107 107 106 105 106 108 108 104 102 101 102 99 92 88 86 87 85 77 71 66 58 54 51 49 47
86 73 70 71 68 67 68 70 72 75 79 81 85 88 84 82 82 84 92 97 92 90 93 99 106 108 108 106 103 106 102 90 79 67 60 62 71 83 82 73 74 82 90 93 92 99 105 107 109 102 92 88 86 86 85 81 79 80 81 84 94 106 108 105 103 103 105 107 107 105 101 101 102 96 88 85 85 84 80 72 66 61 56 53 50 48
92 82 79 78 76 76 78 78 76 78 82 85 86 84 81 88 95 89 86 90 90 90 90 92 98 105 108 109 107 107 104 102 101 90 78 77 78 81 89 96 97 95 98 101 100 103 106 107 109 104 98 95 91 89 88 84 81 84 86 83 87 99 105 104 102 101 102 102 103 105 103 100 102 99 91 85 83 83 80 72 66 64 59 55 52 49
92 88 83 84 87 88 90 91 87 84 85 85 84 82 83 90 93 86 80 81 85 92 97 97 101 107 106 105 103 103 103 102 105 99 87 83 78 76 86 96 101 103 105 107 106 105 105 104 104 104 101 100 96 92 89 85 82 83 85 84 84 89 95 101 104 103 101 100 99 100 102 101 101 101 95 88 84 82 79 72 67 65 62 58 55 51
82 84 82 85 92 95 99 99 92 87 87 90 91 90 90 89 86 82 78 76 76 80 91 100 108 109 102 102 105 105 105 100 97 96 89 82 75 76 86 90 95 105 107 106 106 105 103 101 102 103 100 99 99 98 97 95 92 88 86 84 84 84 85 91 100 104 103 102 99 96 99 103 103 104 101 96 91 86 80 74 68 66 64 61 58 54
63 69 73 79 86 91 97 99 93 88 90 96 99 97 96 97 96 90 80 76 72 72 85 97 103 97 88 101 113 107 101 95 88 86 83 79 74 74 81 82 89 103 107 107 110 108 106 105 105 105 102 99 100 100 101 101 100 99 97 93 91 88 83 86 93 100 104 104 101 97 96 98 102 104 104 102 98 95 90 82 75 69 65 63 61 58
54 56 62 68 73 77 85 93 91 85 86 90 92 93 94 96 99 98 91 87 83 82 90 91 87 80 79 101 115 102 93 93 93 91 84 80 79 78 79 75 77 88 95 100 107 109 109 108 108 107 104 102 102 102 103 103 102 102 103 101 99 95 89 87 90 93 99 101 102 103 99 96 98 101 102 103 101 100 99 95 89 81 70 65 64 63
58 56 59 65 68 70 75 80 79 74 74 78 80 82 85 84 86 93 95 92 91 91 90 82 76 74 80 99 109 97 89 91 96 98 92 89 90 91 89 81 75 82 90 95 99 103 106 107 109 109 108 106 106 106 107 107 107 106 104 103 103 102 98 94 92 92 92 94 97 103 104 102 102 101 100 101 101 101 101 100 99 95 86 75 67 65
64 62 61 63 67 69 70 69 66 62 61 66 70 73 75 75 76 82 84 81 79 80 80 77 75 77 86 96 95 86 82 82 85 88 90 94 97 98 97 90 81 80 84 87 90 95 100 102 104 107 109 110 109 109 108 107 109 108 107 105 104 104 103 101 99 96 94 94 95 98 102 104 105 103 103 103 102 102 102 102 102 100 98 91 80 73
63 63 61 60 62 63 63 61 59 56 55 58 64 67 69 68 66 68 71 69 69 69 70 72 72 73 81 83 79 77 78 78 78 80 84 92 97 96 95 92 85 80 80 82 82 86 91 96 101 106 109 109 108 109 107 106 108 108 107 107 106 104 102 102 102 101 100 99 99 100 100 102 103 101 102 102 100 99 101 105 105 102 101 99 93 87
57 58 58 57 56 55 55 56 57 58 58 56 57 61 64 64 62 63 65 64 62 61 60 62 64 67 72 69 64 70 76 79 80 79 78 85 94 98 95 91 88 84 84 84 82 82 87 93 99 105 109 109 108 107 106 105 105 107 107 106 106 105 102 99 98 99 101 101 101 102 101 102 102 101 101 102 100 97 97 101 103 103 104 103 100 96
51 53 54 55 53 50 50 52 54 55 56 54 53 54 56 57 58 59 60 57 54 52 52 56 62 67 69 64 60 65 70 74 76 72 68 68 76 85 88 89 90 89 88 88 87 86 87 89 91 95 100 102 104 107 108 105 103 104 105 103 103 104 103 99 94 91 93 95 97 99 100 102 103 102 102 102 103 102 100 100 100 101 104 103 102 101
47 49 51 52 50 49 49 50 50 50 51 51 51 51 51 53 55 54 53 52 51 51 52 56 62 65 66 60 56 60 63 62 62 61 60 58 60 67 72 74 76 80 83 87 91 94 94 92 90 91 92 92 94 98 98 95 93 95 100 103 105 105 104 103 100 95 93 92 91 91 94 99 102 104 104 102 103 104 103 102 102 101 101 101 101 100
48 49 50 51 49 47 48 49 50 51 52 52 52 51 51 51 52 52 52 50 51 52 54 57 59 60 61 57 53 55 57 56 55 54 55 54 54 56 59 61 61 62 65 71 79 88 94 97 96 97 99 96 92 91 90 86 82 81 84 91 99 103 104 104 104 102 100 97 93 89 89 93 97 101 103 103 102 102 101 102 104 104 103 103 103 100
46 46 45 46 45 44 44 45 46 46 46 48 48 48 48 47 47 48 48 47 47 48 49 50 52 53 53 53 51 51 52 53 54 53 52 50 48 46 47 50 52 52 51 54 59 66 74 84 91 100 106 105 98 93 89 85 81 78 76 78 85 92 96 100 102 103 102 100 96 92 90 91 93 96 100 103 102 100 97 97 99 102 104 106 105 103
38 38 38 39 40 40 38 38 39 40 39 40 40 40 40 40 40 40 40 40 40 41 41 42 42 43 44 44 44 43 43 44 45 46 46 46 45 43 42 43 45 46 45 44 46 47 52 61 70 81 90 96 98 100 95 86 82 82 79 76 77 80 84 88 92 95 97 99 100 99 96 93 93 94 97 101 104 102 99 97 97 98 100 102 102 101
32 33 35 37 39 39 38 34 32 34 35 37 36 35 34 34 35 35 35 36 34 34 34 35 35 36 37 37 37 37 37 37 37 38 38 39 39 40 40 40 40 40 41 41 41 41 42 46 51 57 63 69 77 88 95 91 87 85 82 77 75 76 79 80 81 83 84 87 91 96 98 98 98 99 98 99 101 103 103 103 102 100 98 99 99 100
30 31 33 36 39 42 44 41 36 33 33 34 34 33 33 33 32 33 33 35 35 33 32 32 32 33 33 33 34 36 36 36 35 35 34 34 35 35 35 36 36 35 35 36 36 36 37 39 41 42 45 48 50 59 72 80 84 86 83 78 75 77 80 78 79 84 85 82 81 82 84 88 92 95 97 98 98 100 101 103 104 103 100 99 99 100
32 31 31 34 37 41 45 47 46 43 39 36 33 32 33 33 34 33 33 34 35 35 35 33 33 34 33 31 33 34 34 35 35 35 34 34 33 33 33 32 33 33 32 32 31 32 33 33 34 35 36 38 40 42 48 56 65 73 76 76 75 78 80 76 76 84 91 92 88 83 81 79 79 81 83 86 88 89 92 95 99 101 100 99 99 99
34 34 33 34 35 37 41 44 47 49 48 45 41 37 36 35 35 35 34 32 31 33 34 34 34 36 34 31 31 32 32 33 33 33 33 32 32 33 33 32 31 30 30 31 31 31 32 32 33 32 32 33 35 36 38 41 46 52 59 64 67 72 77 79 78 80 84 85 82 79 77 76 75 75 74 74 75 75 76 79 82 86 89 90 91 93
36 35 35 36 35 36 39 41 43 46 49 50 48 45 41 38 36 35 34 31 30 30 31 31 33 35 35 33 33 33 34 34 33 33 33 32 32 33 34 34 34 34 34 34 35 35 36 36 35 33 32 31 31 32 33 34 35 37 41 46 50 55 63 71 77 79 78 78 75 71 69 70 71 72 72 72 72 71 70 70 71 71 72 74 76 77
38 37 37 37 37 37 39 42 44 46 49 52 52 51 48 44 39 36 32 31 31 31 30 31 34 35 35 34 33 33 36 37 36 35 34 34 34 35 36 36 37 38 38 38 38 38 38 38 37 35 34 32 31 30 30 30 31 32 33 35 37 40 44 51 59 65 70 72 71 70 69 69 68 66 66 68 70 70 70 70 72 72 69 68 68 68
43 41 41 40 40 40 41 43 46 48 50 52 53 52 51 48 43 40 37 36 36 35 33 36 37 35 33 32 32 33 34 35 35 35 35 37 37 38 38 38 38 38 39 39 39 38 38 38 37 36 36 36 35 34 33 32 31 31 31 31 32 32 33 36 40 45 52 57 59 62 64 66 66 65 65 65 66 68 69 70 71 71 72 72 71 71
47 47 47 46 45 45 45 45 45 46 46 48 50 52 53 51 49 48 48 48 45 40 37 40 40 36 34 35 36 37 36 34 35 37 39 41 42 42 41 41 40 38 37 37 37 38 38 39 39 39 38 38 38 38 37 37 35 34 34 34 33 33 31 31 31 33 37 40 43 45 46 47 50 54 59 63 67 69 71 74 76 74 74 76 75 75
49 49 48 48 48 47 47 46 46 45 44 45 46 49 52 53 53 55 56 54 50 44 40 40 39 37 38 39 39 41 42 42 43 44 43 43 43 43 44 43 43 41 38 37 37 38 40 41 43 44 43 42 41 40 40 39 39 39 38 37 37 36 35 34 32 31 31 32 35 42 52 61 61 56 56 56 58 62 65 67 73 76 77 79 79 76
51 49 48 48 47 47 49 50 48 46 45 45 46 47 49 51 54 56 57 55 51 46 44 43 41 43 45 43 41 43 45 45 46 47 47 47 47 46 47 48 48 47 46 44 43 41 41 42 44 46 48 47 45 43 41 40 40 40 41 41 40 39 39 37 36 35 33 32 32 38 58 85 91 83 83 83 77 75 78 72 66 65 65 68 73 74
50 47 47 46 45 46 51 51 48 47 46 45 48 51 55 59 63 62 60 55 52 49 47 45 45 47 48 47 45 46 47 46 46 47 49 50 50 51 51 52 53 52 51 50 47 45 43 42 43 44 46 48 48 47 46 43 42 41 40 40 41 41 40 40 40 39 36 35 35 32 40 66 90 91 88 98 102 98 97 94 80 66 57 50 52 58
48 46 45 45 43 47 53 53 49 48 46 46 52 61 65 67 68 66 62 58 54 52 50 50 50 50 49 48 48 48 49 49 49 48 48 47 47 49 51 52 53 52 51 50 48 48 47 47 47 47 47 48 49 49 48 47 46 45 43 41 40 40 40 40 40 41 40 37 38 38 33 44 80 99 86 84 101 104 99 100 95 81 68 54 43 41
54 51 51 49 48 50 54 52 49 46 45 51 61 67 65 62 61 61 63 63 60 56 53 53 54 54 53 52 52 52 52 52 51 49 48 47 46 47 48 50 51 51 51 52 52 53 54 55 55 56 56 56 56 55 53 51 49 47 46 44 42 41 40 41 41 40 41 40 38 43 40 34 58 97 101 87 93 103 100 98 98 91 80 68 54 41
61 59 57 54 51 51 51 49 46 44 48 55 60 60 60 61 60 60 62 64 64 61 57 56 56 56 57 56 55 55 56 56 55 51 48 46 45 45 47 48 50 52 53 55 57 60 62 64 65 66 66 65 64 61 58 55 52 50 49 46 44 42 41 41 43 43 43 44 40 40 45 40 41 71 101 99 93 100 103 98 94 88 78 71 65 53
62 61 59 56 53 51 50 47 43 44 49 53 54 56 58 59 58 58 59 61 61 60 60 61 60 59 59 58 55 55 55 55 55 52 48 46 45 45 47 48 50 52 55 58 62 65 67 68 69 69 69 70 67 63 59 56 53 50 50 50 49 47 44 40 41 45 45 48 48 42 43 45 39 49 81 102 101 100 102 99 91 79 67 62 58 51
61 61 59 57 55 52 51 48 44 44 47 48 48 49 49 49 50 52 54 56 57 58 60 61 62 62 61 60 58 56 55 54 54 53 51 50 50 51 51 52 54 56 59 62 65 67 67 66 65 65 67 67 65 62 59 57 54 50 49 51 51 50 49 45 42 45 45 45 48 49 46 47 44 42 57 84 100 103 102 101 95 85 75 63 50 44
60 59 58 55 54 53 52 49 45 43 44 45 44 41 40 43 46 46 47 47 47 50 53 55 56 58 59 59 58 57 55 56 59 61 58 55 55 55 54 53 54 54 56 58 59 60 59 59 59 60 61 62 62 61 60 57 56 52 48 49 50 48 48 50 48 47 47 43 42 45 46 47 50 48 46 55 73 89 98 101 101 96 85 66 48 43
55 54 54 52 51 49 47 44 42 42 42 43 43 41 41 43 43 40 39 39 40 43 46 47 48 49 50 52 53 53 54 56 61 64 60 54 53 52 51 51 50 49 50 50 49 49 50 50 52 53 55 57 59 60 60 58 56 53 49 47 49 48 47 48 47 45 44 43 41 41 42 44 48 52 51 48 50 57 67 74 79 78 69 55 45 45
51 48 47 45 43 41 41 40 41 41 41 42 43 42 42 42 41 37 35 35 37 41 43 44 46 46 46 46 46 46 47 48 52 55 54 50 48 47 47 48 47 46 46 45 44 44 46 47 48 48 47 48 51 53 54 54 54 54 51 47 46 48 46 44 43 41 40 41 41 41 42 43 44 47 52 55 52 49 47 47 49 50 49 46 45 45
49 44 41 39 38 39 39 40 40 40 39 40 41 40 40 41 39 37 36 36 36 37 37 39 41 43 44 44 43 43 43 43 46 49 50 49 48 46 45 44 43 43 42 42 41 41 44 48 49 47 45 44 45 46 45 47 50 51 47 44 43 43 41 39 37 37 38 39 40 42 44 46 45 44 45 47 47 46 43 40 40 42 44 46 47 46
44 40 38 38 39 39 38 37 37 37 36 36 36 36 38 39 38 38 39 39 37 36 35 36 38 40 42 42 42 43 43 43 43 44 44 44 44 43 42 40 40 41 40 41 41 41 44 48 46 44 44 44 44 44 42 43 48 47 41 37 38 37 35 34 32 33 34 36 38 40 43 44 43 39 36 34 34 35 36 37 40 44 47 49 50 50
43 42 40 39 39 38 37 35 33 33 33 33 34 34 36 37 37 37 40 40 39 38 36 36 38 39 39 40 41 42 42 42 42 40 40 40 40 39 40 39 40 41 40 40 41 41 43 46 45 41 41 43 43 43 43 44 47 45 40 37 37 37 35 32 30 30 31 32 34 36 37 38 36 33 30 29 29 31 33 36 42 46 50 52 52 50
49 49 45 42 38 36 36 34 33 33 34 34 33 34 36 38 37 37 39 41 41 42 40 40 41 40 38 38 39 39 40 40 41 40 40 40 39 39 40 41 40 40 41 41 41 40 40 41 41 39 38 39 39 38 38 40 42 40 37 36 36 35 34 32 30 29 28 27 27 28 28 28 29 29 29 29 28 29 32 37 42 46 50 51 49 47
51 51 47 44 42 38 35 33 34 35 36 36 35 36 38 41 42 42 43 46 47 48 47 46 46 44 42 41 41 42 43 42 41 41 41 41 40 39 37 37 37 37 39 40 39 39 38 36 35 35 33 33 33 33 32 33 34 32 29 30 31 29 28 27 25 24 22 20 20 21 22 23 24 25 25 26 27 30 34 37 40 43 46 46 44 41
49 45 42 42 42 38 34 34 36 37 38 37 37 39 43 46 47 46 46 48 49 48 48 47 47 46 45 44 44 45 47 47 46 48 48 47 46 43 39 36 35 34 35 37 38 38 37 36 34 32 30 28 28 29 30 31 29 25 23 24 24 23 21 20 18 17 17 16 16 17 17 18 20 21 22 23 26 31 36 38 39 41 42 43 41 38
47 39 37 38 37 33 34 40 43 43 42 42 42 42 42 43 43 43 42 43 44 44 44 44 44 44 43 42 40 40 42 45 47 49 52 52 52 50 47 43 41 39 37 38 39 38 37 36 35 33 30 28 27 29 30 28 25 22 21 22 20 18 16 15 15 16 17 17 16 16 16 17 18 20 22 23 28 34 38 39 40 40 40 39 38 36
39 35 38 37 33 33 41 48 49 47 46 47 46 44 40 36 35 35 34 33 34 36 38 40 41 42 42 41 40 38 38 40 41 41 44 46 46 46 46 45 43 41 39 38 38 37 36 36 35 32 29 28 29 28 27 25 22 20 19 19 18 17 16 16 16 18 19 20 19 17 18 19 21 24 27 28 30 36 40 40 38 37 37 37 35 34
32 34 37 35 34 39 47 51 50 47 47 48 45 41 37 32 30 28 26 25 27 29 32 34 36 36 36 36 36 34 34 35 34 33 34 36 36 36 36 37 37 37 36 35 34 33 34 34 32 29 28 28 28 26 23 21 20 18 18 18 20 21 20 19 20 20 22 23 22 20 20 23 25 28 32 32 33 38 41 39 35 33 33 33 32 32
32 35 36 34 38 45 50 49 45 41 44 49 45 37 33 30 26 24 24 24 24 23 23 25 26 26 26 26 26 26 27 28 27 26 27 28 27 27 27 28 28 29 29 28 27 28 29 28 25 24 25 25 23 21 19 18 18 18 19 21 24 24 22 22 22 24 24 24 23 23 25 28 30 31 35 38 40 41 40 36 33 32 32 33 33 32
31 35 37 38 41 46 49 48 42 37 41 47 44 34 28 24 21 20 22 22 20 19 17 17 19 19 18 18 18 19 20 21 19 20 21 21 20 20 20 20 20 20 20 21 22 22 22 21 20 20 21 20 20 19 18 19 20 22 23 25 26 25 26 28 29 29 29 30 34 38 40 42 43 44 47 51 50 47 43 40 38 36 36 36 35 34
Wind_Speed
43 44 44 43 41 40 39 39 39 38 38 39 39 39 37 36 35 35 34 33 34 35 36 36 36 37 36 36 36 36 37 37 38 38 38 39 40 40 41 42 43 45 46 46 44 45 45 45 45 44 44 44 44 44 42 41 40 39 38 37 36 36 35 35 34 34 34 34 34 34 33 33 33 33 33 34 33 33 33 33 32 31 30 30 30 30
45 46 45 43 42 41 41 42 42 42 41 41 41 40 40 38 36 35 34 32 32 32 32 33 34 34 35 35 33 33 33 34 34 34 33 34 35 36 38 39 41 42 43 42 41 42 42 42 42 42 43 42 41 40 38 36 35 35 35 35 35 34 34 34 34 34 34 33 33 33 34 34 34 35 35 35 34 34 34 34 33 32 31 31 31 31
46 46 45 44 44 43 43 44 44 44 43 43 43 42 42 41 39 38 36 34 32 31 31 31 32 33 34 35 35 34 33 32 31 31 30 30 31 33 36 38 39 39 39 39 39 39 39 40 40 40 41 39 38 37 34 33 32 32 33 34 34 34 33 33 34 35 34 34 34 34 34 35 35 36 36 36 35 35 35 34 34 32 32 32 32 32
47 46 45 45 45 45 44 45 45 46 45 45 45 45 45 44 43 40 38 36 33 32 32 32 32 33 34 35 36 37 36 33 32 31 30 29 29 31 34 35 36 36 36 36 36 37 38 37 38 40 40 38 36 34 31 31 31 32 33 34 35 35 34 34 35 36 35 35 35 35 36 36 36 37 37 36 36 36 35 35 34 33 33 32 33 34
47 46 46 46 46 46 46 46 46 47 47 46 46 47 47 47 45 42 40 39 36 35 35 34 34 35 37 38 39 40 40 36 33 30 29 28 29 32 34 34 34 35 35 35 35 36 36 37 40 42 40 38 36 33 31 31 32 33 34 35 35 36 36 35 36 36 36 36 36 36 37 37 37 37 37 37 37 36 36 35 35 34 34 33 34 34
46 46 45 46 47 47 47 47 47 48 48 48 48 49 49 48 45 43 43 42 40 39 39 38 38 38 40 42 42 44 43 39 34 31 30 29 29 33 36 36 35 35 36 36 36 37 36 40 45 44 41 39 37 35 34 34 33 34 35 35 36 37 37 37 38 38 38 38 37 37 37 38 38 38 38 38 37 37 36 36 35 35 35 35 35 35
43 43 43 45 46 47 47 48 48 48 48 48 49 50 49 48 47 45 45 45 44 43 42 42 41 41 43 45 45 46 45 43 39 35 34 32 32 35 37 37 36 37 39 39 38 39 39 43 46 44 42 41 39 38 37 36 35 35 36 37 37 38 38 39 40 40 39 39 39 38 38 39 39 39 39 39 38 38 37 37 36 36 36 36 36 36
41 40 40 42 43 45 47 48 48 48 48 49 50 51 49 48 49 49 47 47 46 45 44 44 43 43 45 47 49 49 48 47 45 42 39 37 37 38 38 39 40 40 41 41 41 41 42 44 46 45 45 45 43 41 40 39 38 38 39 39 38 39 40 40 41 41 41 40 40 40 40 40 39 39 39 39 39 39 39 39 38 38 37 37 37 37
40 40 39 40 41 43 45 46 47 47 48 49 50 50 49 49 51 50 49 48 46 45 45 46 46 46 46 48 51 53 52 51 50 48 45 42 41 42 42 42 43 43 44 44 44 45 45 45 47 47 47 47 45 44 42 41 41 41 41 41 40 41 41 41 42 42 42 42 41 41 41 41 41 40 40 40 40 40 40 40 40 40 39 39 39 39
40 41 41 41 43 44 45 46 46 45 46 47 48 49 49 50 51 51 50 49 48 46 46 47 49 49 46 47 51 55 56 54 53 52 49 47 45 45 46 46 45 46 47 47 48 48 48 48 49 49 49 48 47 46 44 44 44 43 43 42 42 43 42 42 43 44 44 44 43 42 42 42 42 41 41 41 41 41 42 42 42 42 41 41 41 40
42 42 43 44 45 46 47 48 47 45 45 47 48 48 49 49 50 50 49 49 48 45 47 50 51 49 45 45 52 58 57 54 53 52 51 50 48 47 48 50 49 49 50 50 50 51 50 50 51 51 51 50 49 48 47 47 47 47 46 45 45 44 44 44 45 45 46 45 45 44 43 43 43 43 43 43 43 43 43 43 43 43 43 43 43 43
45 45 46 47 48 48 50 51 50 48 47 48 49 49 49 50 50 50 49 49 47 46 49 52 51 48 44 47 56 60 56 54 53 53 52 50 50 49 50 51 51 52 52 52 52 53 52 52 52 52 52 52 52 52 50 50 50 50 49 48 47 46 45 45 46 47 47 47 46 46 45 45 45 45 45 45 45 44 44 44 44 45 45 45 45 45
48 48 48 50 51 52 53 54 53 51 51 51 52 52 52 52 51 51 51 50 48 49 51 52 50 48 46 51 58 59 56 55 54 53 52 51 51 52 52 52 52 53 54 54 54 54 55 54 54 54 53 54 55 55 53 53 53 52 52 51 51 50 48 48 47 48 48 48 48 48 48 47 47 47 46 47 47 46 46 46 46 46 46 47 47 47
51 51 51 52 54 55 56 56 56 55 53 54 55 55 56 56 55 55 55 53 51 52 52 51 50 49 50 55 58 58 57 55 54 53 52 52 53 53 54 54 54 54 55 55 55 55 57 57 56 55 55 55 56 56 56 55 55 55 54 54 54 53 52 51 50 49 49 49 49 50 50 50 49 49 48 48 48 48 48 48 48 48 48 48 48 49
53 54 54 55 56 58 58 58 58 58 56 56 57 58 59 59 58 58 58 57 55 55 55 54 53 53 55 58 58 59 58 56 56 54 52 52 54 55 56 56 55 54 55 56 57 57 58 58 57 56 56 57 58 58 58 57 57 57 57 56 56 55 55 54 53 52 51 51 51 52 52 52 52 51 50 50 50 49 49 50 50 50 50 50 50 50
54 56 57 58 59 59 59 59 60 59 59 59 59 60 61 62 61 60 60 60 59 58 57 56 57 57 60 61 60 60 61 59 59 58 56 55 56 57 58 58 56 55 55 58 58 58 58 58 58 58 58 59 60 60 59 59 58 58 58 58 58 57 57 56 55 55 55 54 54 54 54 54 53 53 53 53 52 51 51 51 51 52 52 52 52 52
55 56 58 60 61 60 60 61 61 61 62 61 61 62 62 63 62 62 62 62 61 59 58 58 59 61 63 64 62 63 64 64 63 63 61 60 59 60 61 60 59 57 57 58 59 60 60 60 60 60 62 62 62 62 62 61 60 60 59 60 60 60 60 59 58 57 57 57 57 57 56 56 55 55 55 55 55 54 54 53 53 53 54 54 54 54
54 56 58 60 61 60 60 61 61 62 62 62 62 63 63 63 64 64 63 63 62 60 59 59 61 63 65 66 64 65 67 67 67 66 65 64 64 64 64 64 63 61 61 61 61 62 62 62 62 63 64 65 65 65 65 64 63 62 61 62 62 62 62 62 61 60 59 60 60 59 58 58 58 58 57 57 57 57 57 56 55 55 55 56 56 56
51 53 55 57 59 59 58 59 60 60 60 61 62 63 63 63 63 64 64 63 62 61 60 60 62 63 66 67 66 66 68 69 68 68 68 68 68 68 67 67 67 66 65 64 64 65 65 65 64 65 66 67 67 67 67 66 65 64 63 63 63 64 64 64 63 63 62 62 62 61 60 60 60 60 60 60 60 60 59 59 58 58 57 58 58 58
47 48 50 52 55 56 55 55 56 57 57 58 60 60 61 61 62 63 63 62 62 62 60 60 61 62 64 66 67 67 67 68 69 70 70 70 71 71 70 69 69 69 68 67 67 67 67 67 67 68 69 70 70 70 69 68 67 66 65 64 65 65 65 65 65 65 64 64 64 64 63 63 63 62 62 63 63 63 63 62 61 61 61 61 60 60
45 45 47 48 51 54 54 53 53 54 54 56 57 57 57 59 60 61 61 61 61 60 59 58 57 58 62 65 66 66 67 68 69 70 70 70 71 72 72 72 71 71 70 70 70 70 69 69 70 71 72 73 73 73 73 71 69 68 68 67 67 66 66 67 67 67 66 66 65 65 66 65 65 65 65 65 66 66 66 65 64 64 64 64 64 63
44 44 45 47 49 52 55 54 53 53 53 55 57 57 56 57 58 58 58 59 59 58 56 55 54 56 59 61 62 64 65 66 67 68 67 68 69 70 71 71 71 71 71 72 72 72 71 71 72 73 74 75 75 75 76 75 73 73 72 70 69 68 68 68 68 68 68 67 67 67 68 67 67 67 67 67 68 68 68 68 67 67 67 67 67 67
45 45 45 46 47 50 53 55 55 55 55 56 57 57 57 57 57 57 56 56 57 56 55 55 54 55 58 58 60 62 63 64 65 66 66 67 68 69 69 70 70 70 71 71 72 72 72 73 75 76 76 77 77 77 77 77 77 77 76 75 72 71 71 71 70 69 70 70 69 69 69 69 69 69 69 69 70 70 70 70 70 70 70 70 70 70
46 46 45 46 47 49 52 54 56 58 58 59 59 58 58 58 58 59 57 56 56 55 55 56 54 55 58 59 61 63 63 65 66 66 67 67 68 69 69 69 70 70 70 70 70 71 71 73 75 76 76 77 77 77 77 78 78 78 79 78 76 75 76 75 74 73 74 73 72 71 70 70 70 70 71 71 71 71 71 71 72 72 72 72 72 72
47 48 47 47 48 49 52 54 56 58 60 61 61 61 61 60 61 61 60 59 57 55 56 57 54 56 59 61 63 64 64 66 68 68 68 68 68 68 69 69 70 69 69 69 69 69 70 71 73 74 74 75 75 76 77 78 78 78 79 79 78 77 77 78 78 78 78 78 77 75 74 73 72 72 72 72 72 73 73 73 73 74 74 74 74 75
49 49 49 49 50 50 52 55 56 58 60 62 63 64 65 65 64 64 63 63 60 58 59 57 55 58 61 61 62 65 66 67 68 68 68 68 67 67 68 68 68 68 68 68 68 68 68 69 71 73 73 74 74 75 76 77 78 78 78 79 79 78 77 78 79 80 81 81 81 79 77 76 76 75 74 74 74 74 74 74 75 75 76 76 76 76
51 51 52 52 52 53 54 56 57 59 61 63 65 67 68 68 68 68 67 65 64 63 61 58 59 61 63 63 64 66 67 68 68 68 68 67 67 67 67 67 67 67 67 67 68 68 69 70 72 72 73 73 74 74 75 75 76 77 77 78 79 78 77 78 79 79 80 81 81 81 80 79 80 79 78 78 78 77 77 76 77 77 77 77 77 78
54 54 54 55 55 56 56 57 59 60 61 63 66 69 70 71 70 70 70 68 68 67 62 61 64 65 63 65 67 67 69 69 68 67 67 67 67 66 66 66 66 67 67 67 68 68 69 70 71 71 71 72 72 73 73 74 75 75 76 77 79 79 79 79 79 79 79 79 79 79 80 80 80 80 80 80 81 81 81 81 81 81 80 80 80 80
56 56 57 57 57 58 58 59 61 62 62 63 66 68 70 71 71 71 71 71 72 71 66 65 68 66 62 66 69 68 68 68 68 68 67 67 67 67 66 66 67 67 67 67 67 67 67 67 68 69 69 69 70 71 72 72 73 74 75 76 78 78 79 79 79 79 79 78 77 77 78 78 78 79 79 80 81 82 84 85 85 85 85 84 84 84
59 59 59 59 59 59 60 61 62 63 63 63 65 67 68 70 71 72 73 75 76 75 71 69 69 65 63 67 69 68 67 68 69 69 68 68 68 67 67 67 67 68 67 66 66 65 65 65 66 67 67 67 68 69 70 70 71 72 73 74 76 77 78 78 78 78 78 76 73 71 67 65 68 73 73 74 75 77 79 82 84 86 87 87 88 88
62 62 61 61 60 59 59 61 63 64 64 63 64 65 67 69 71 73 76 77 78 76 73 71 69 65 66 70 71 68 68 69 69 69 69 69 68 67 67 67 67 67 67 67 66 66 65 65 66 66 66 67 67 68 68 69 69 70 71 72 73 75 76 76 77 77 77 75 73 69 62 56 57 61 63 67 70 72 74 78 81 83 85 87 89 90
64 63 62 62 61 58 59 63 64 64 65 63 62 64 68 70 73 76 78 78 78 76 74 72 69 66 68 71 71 70 69 69 69 69 69 69 68 68 67 67 67 67 67 67 67 67 67 67 67 67 67 67 67 67 67 68 68 68 69 69 70 72 73 74 74 75 75 74 73 71 68 64 61 59 57 60 66 71 74 77 78 80 82 86 88 89
67 65 64 65 62 59 61 65 66 66 65 62 62 66 71 74 76 77 79 79 79 77 76 74 72 70 70 70 70 71 71 70 70 70 69 69 68 67 67 67 67 67 67 68 68 68 68 68 68 68 68 67 67 67 67 67 67 68 68 68 68 68 69 69 71 72 73 73 72 71 70 69 68 67 65 61 60 66 74 76 77 79 80 83 86 88
70 69 68 68 66 62 64 67 69 68 64 62 65 71 75 77 77 77 79 80 81 80 77 76 74 73 72 71 71 71 71 71 71 70 70 70 68 67 67 67 67 67 68 68 68 69 69 69 69 69 68 68 67 66 66 66 66 66 66 66 66 66 66 66 66 68 69 69 70 70 70 70 70 71 73 70 64 65 71 75 77 79 80 81 84 87
70 71 71 72 71 68 67 70 70 67 64 66 70 73 75 77 78 79 80 81 82 82 80 78 77 76 75 75 74 73 72 72 72 72 72 71 70 69 68 67 67 67 68 68 69 69 69 70 70 69 69 68 68 66 65 65 65 64 64 64 64 63 63 63 63 64 65 66 67 68 69 71 71 71 75 78 76 75 78 80 79 80 80 79 79 82
70 72 73 74 74 73 71 72 71 67 66 68 71 72 74 76 78 80 81 82 83 82 81 80 79 78 78 77 76 75 74 73 73 73 73 72 71 69 68 68 67 67 68 69 69 70 70 70 69 69 69 68 68 67 66 64 64 63 62 62 63 62 62 61 60 60 62 64 65 67 68 70 72 74 77 82 85 86 89 89 88 85 82 79 77 78
69 71 73 75 75 75 74 73 72 69 67 68 69 71 73 74 76 78 80 81 82 81 80 80 80 79 79 78 78 77 76 74 74 74 74 72 71 70 69 69 69 69 70 70 70 70 70 69 69 68 68 67 67 67 66 64 64 62 61 60 61 62 61 61 60 59 60 61 62 65 67 69 71 74 78 84 89 92 94 95 95 93 90 87 84 82
70 71 73 74 74 74 75 73 71 68 66 65 66 68 68 69 71 74 76 77 77 76 77 77 77 78 78 77 77 77 76 75 75 77 77 74 72 71 71 70 70 70 70 70 69 69 68 67 66 66 65 64 64 65 65 64 64 63 61 60 61 61 61 60 61 61 61 61 61 63 65 67 69 73 77 82 88 93 97 100 100 99 97 94 90 86
71 70 71 72 71 71 72 70 67 65 63 62 63 65 66 67 69 71 72 72 70 70 71 72 73 73 73 73 74 74 74 74 75 78 79 76 73 73 72 71 70 70 69 68 67 66 65 64 63 62 62 61 62 63 63 63 63 63 61 60 61 61 60 60 61 62 61 62 62 62 62 63 66 70 75 79 84 90 96 99 100 99 98 95 89 86
71 70 69 68 67 66 66 64 62 62 61 60 61 63 64 66 69 70 69 67 66 66 67 68 69 69 69 70 70 70 71 71 71 75 77 75 73 72 71 71 70 69 68 67 65 64 62 61 61 60 60 59 59 61 61 61 61 62 62 61 61 60 61 61 61 61 60 60 61 61 62 62 64 68 73 78 83 87 91 93 93 93 92 90 86 84
71 70 67 65 62 62 61 60 60 60 60 59 60 61 61 63 66 67 66 64 63 63 63 64 65 66 66 67 67 67 68 68 68 71 73 73 72 71 71 70 69 67 66 65 64 62 60 60 61 60 59 58 58 59 59 59 59 62 63 61 59 60 61 61 60 59 59 59 60 61 62 64 67 70 74 79 82 83 84 84 84 83 83 83 83 83
70 67 65 62 60 59 59 58 58 58 58 57 58 59 59 60 62 62 62 62 61 60 61 61 62 62 63 63 64 65 65 66 66 67 69 69 69 69 70 69 67 65 65 64 63 61 59 60 61 60 58 58 58 58 58 57 59 62 62 59 57 58 59 59 58 57 57 58 60 61 63 66 70 74 75 76 76 77 76 76 76 76 77 78 80 80
67 65 63 61 60 59 59 58 57 56 57 56 56 56 56 57 57 57 58 59 59 59 59 59 59 60 60 61 62 63 63 64 65 65 66 66 67 67 66 66 65 64 63 62 62 60 59 60 61 60 58 57 58 58 58 58 60 62 61 58 56 57 58 58 56 55 56 58 60 62 64 67 71 72 73 72 71 71 70 69 70 72 74 76 78 79
64 63 62 61 60 59 58 57 56 56 57 57 55 54 54 54 54 54 54 55 56 57 57 57 57 58 58 58 59 59 60 61 62 63 63 64 64 64 63 63 63 62 62 61 61 60 59 59 59 59 58 57 57 57 57 57 59 61 58 56 55 56 57 57 56 56 57 58 59 61 63 65 67 69 70 69 69 67 66 66 67 70 73 75 77 77
61 62 61 60 60 60 57 56 57 57 57 55 53 52 52 52 52 52 52 52 53 54 55 55 55 56 56 56 56 56 57 58 59 60 60 61 62 62 61 60 60 60 60 60 59 58 58 58 57 57 56 55 56 56 55 55 56 56 54 52 53 53 54 55 56 56 57 56 56 58 60 62 63 65 66 65 65 64 64 65 66 69 72 74 76 76
61 61 60 59 59 58 56 56 58 58 56 54 52 51 51 52 52 52 51 51 52 53 54 55 55 56 56 56 55 55 56 57 58 58 59 60 60 61 61 60 59 58 58 58 57 57 57 57 56 56 55 55 54 53 52 53 54 52 50 49 50 51 51 52 52 51 50 50 51 52 54 56 58 60 61 60 60 61 62 64 66 68 71 73 74 73
62 61 59 58 57 55 53 55 57 58 56 55 53 52 52 52 53 53 52 52 53 54 55 56 57 57 57 57 56 55 55 56 57 58 59 60 60 61 61 60 60 59 59 58 58 58 57 57 57 57 56 55 53 52 52 53 52 49 48 48 49 49 48 47 46 44 44 45 46 46 47 49 50 53 55 56 56 58 61 64 66 67 68 70 71 70
60 59 58 57 54 52 52 55 57 57 55 56 56 56 56 55 54 54 54 53 53 53 54 56 57 58 58 58 58 57 56 56 57 58 58 60 60 60 61 61 61 61 60 59 59 58 57 57 58 58 57 55 54 53 53 53 51 49 47 46 46 45 44 43 41 40 41 42 43 43 43 44 45 47 51 53 55 57 60 63 65 64 64 66 66 65
58 57 56 54 51 51 53 56 57 55 54 57 59 59 58 58 56 55 53 52 52 52 52 54 56 58 58 59 59 57 56 57 58 57 57 59 60 59 59 59 59 60 59 59 58 57 57 58 58 57 56 54 54 54 53 51 49 47 45 43 42 42 42 40 39 38 39 41 42 42 42 43 44 46 49 52 53 55 59 62 62 61 61 61 61 61
56 55 54 51 50 51 54 57 58 55 53 57 61 61 60 59 58 54 53 53 53 52 52 52 54 56 57 57 57 55 55 57 57 56 56 58 58 57 56 57 57 57 57 56 55 55 56 57 57 55 53 53 53 52 50 48 46 44 42 41 40 40 39 38 38 38 38 39 40 40 40 41 43 45 47 49 51 54 57 58 58 57 57 58 58 57
53 52 52 51 50 51 54 58 59 55 52 56 61 63 61 60 57 52 51 53 54 53 52 51 51 54 55 54 53 52 53 55 55 54 55 56 55 54 54 54 53 52 52 51 51 53 54 54 52 51 50 50 49 48 46 44 42 42 40 39 38 37 37 37 36 36 36 36 36 37 37 39 40 41 43 46 49 51 53 53 54 54 54 54 54 52
Wind_Direction
256 256 256 257 259 261 262 263 262 260 259 260 261 262 262 264 266 267 266 266 267 269 270 270 269 269 267 265 262 259 255 251 250 251 252 253 254 254 255 256 255 255 256 258 258 258 258 258 258 257 255 254 254 255 256 256 257 257 257 256 254 253 252 251 251 252 252 253 254 255 256 257 257 257 256 256 255 254 254 253 253 252 250 247 245 242
257 257 258 258 259 259 260 260 260 260 260 261 262 263 263 263 263 264 266 266 268 270 272 272 272 271 268 265 262 259 257 254 251 250 251 251 251 252 252 252 253 254 257 259 259 258 258 258 258 257 255 254 255 255 255 255 256 256 256 254 252 251 251 251 251 251 251 251 251 252 253 255 256 256 256 256 255 254 253 253 251 250 248 247 245 242
258 258 259 259 258 257 258 259 260 261 261 261 262 263 263 263 262 262 264 266 268 270 271 271 270 269 269 268 265 261 259 257 254 251 249 248 247 246 247 247 250 253 255 256 257 257 257 258 258 258 256 255 255 256 256 255 254 254 254 254 254 254 252 252 252 251 250 250 250 251 252 253 254 254 255 255 254 254 253 252 251 250 248 246 244 242
260 260 260 259 258 258 257 258 259 260 260 260 261 262 262 263 262 263 263 264 266 268 269 269 269 269 268 267 266 263 261 259 256 253 251 248 246 244 245 247 249 250 252 253 254 255 255 257 257 257 257 257 257 257 257 255 253 252 253 254 256 256 255 253 252 251 250 249 250 251 252 252 253 253 253 254 253 253 252 251 250 249 247 245 244 242
261 260 260 260 260 259 258 257 258 259 259 260 260 261 261 261 262 264 264 264 264 264 265 266 266 268 267 266 265 265 264 263 261 258 255 250 247 246 248 249 251 252 254 254 254 256 257 259 258 257 258 259 260 259 257 255 253 252 252 253 256 257 256 255 253 251 250 250 250 250 251 251 252 252 253 253 253 252 251 250 249 248 247 245 243 242
261 260 260 260 260 260 259 259 258 259 259 259 259 260 260 261 261 262 263 262 261 260 261 261 261 263 264 265 265 265 267 268 267 264 260 254 251 252 252 251 253 255 256 256 256 257 258 259 260 260 261 261 261 259 257 255 253 253 253 254 254 256 256 255 253 252 250 249 250 250 250 250 251 252 252 253 253 252 251 250 249 247 246 244 243 242
261 261 261 260 260 261 261 260 260 260 260 260 260 259 260 261 261 260 259 259 259 258 258 257 257 258 260 262 264 264 266 268 268 266 263 260 257 257 258 259 258 256 256 256 256 256 256 257 260 262 263 263 262 260 259 257 256 255 255 254 254 254 254 253 253 252 250 249 249 249 249 250 250 251 252 252 252 252 251 250 249 247 246 244 242 241
263 263 262 262 262 262 261 261 260 260 260 260 260 260 260 261 260 259 257 257 258 258 258 258 257 256 257 259 261 263 264 265 264 262 261 260 259 259 260 261 261 260 259 259 258 257 256 256 259 261 262 263 262 261 260 260 259 257 256 256 255 254 254 252 251 251 251 250 249 249 249 249 250 250 250 251 251 251 250 250 249 248 246 244 242 241
264 265 265 265 264 263 262 261 261 260 260 261 261 261 261 260 259 259 258 257 257 257 258 259 258 256 256 258 260 261 261 260 260 260 258 258 258 259 259 258 259 260 260 260 260 259 259 259 260 261 261 262 262 262 261 261 261 260 259 258 257 256 255 253 252 251 251 251 250 249 249 250 250 250 249 249 249 249 249 248 248 248 247 245 243 241
263 265 265 265 264 264 264 263 262 262 262 262 263 262 262 261 261 260 259 258 257 256 257 257 257 255 255 258 261 261 259 258 258 259 259 257 256 257 258 258 258 258 258 258 258 259 259 260 260 261 261 262 262 262 262 262 262 261 260 260 258 257 257 256 254 252 251 251 251 251 250 250 250 249 249 249 248 248 248 248 247 247 247 247 245 243
262 263 264 264 264 264 264 264 264 263 263 263 263 263 263 263 263 263 262 261 260 258 258 257 256 256 256 258 259 258 258 259 259 260 260 259 257 256 256 257 257 257 257 257 258 258 258 258 259 260 261 262 262 261 261 261 261 261 261 260 259 258 257 256 255 253 252 251 251 251 251 250 250 249 249 249 248 248 247 247 247 247 246 246 245 244
263 262 263 264 263 264 264 263 263 263 262 262 263 263 263 262 263 263 263 263 262 260 259 258 258 258 257 257 258 258 259 260 260 260 260 260 260 258 256 256 257 258 258 258 258 259 259 258 258 259 261 261 262 261 260 259 259 260 260 259 258 257 257 256 255 254 253 252 252 252 252 251 251 250 250 249 249 249 248 247 246 246 246 245 245 245
266 264 264 264 264 264 263 263 262 262 262 262 263 263 263 263 262 263 263 262 261 260 259 260 260 260 258 257 259 260 260 260 260 260 261 261 261 260 259 258 257 258 258 258 258 259 260 260 259 259 259 260 260 261 260 259 259 258 258 258 257 257 256 255 255 254 254 253 253 253 252 252 251 251 250 250 250 249 249 248 247 246 245 245 245 245
267 266 264 264 264 263 263 263 263 262 262 262 263 263 263 263 262 262 262 262 261 261 261 262 262 261 260 259 260 261 261 260 261 261 261 262 261 261 260 259 257 257 258 258 258 258 259 259 259 259 259 259 259 260 260 259 259 258 258 258 257 257 256 256 255 255 255 254 253 253 253 252 251 251 250 250 250 249 249 249 248 248 247 246 245 245
264 265 264 263 263 262 263 264 264 264 263 262 262 263 263 263 263 263 263 263 263 262 262 263 263 262 261 260 261 263 263 263 262 261 261 261 261 260 260 259 259 258 259 259 259 258 258 259 259 259 259 259 258 258 258 258 259 259 259 258 258 257 256 256 255 256 256 255 254 253 253 253 252 251 251 250 250 250 249 249 248 248 248 248 247 246
263 263 263 263 262 262 263 263 264 265 264 263 263 263 263 263 264 263 263 263 262 262 263 263 264 263 262 262 262 263 264 264 264 262 260 259 259 259 259 259 259 258 258 259 259 259 259 259 259 259 259 258 257 257 256 256 257 258 258 259 259 258 257 256 255 255 255 255 255 255 254 254 253 252 251 251 251 250 250 249 249 248 248 248 248 248
262 262 262 262 262 262 262 262 262 262 263 263 262 262 262 263 263 263 263 263 263 264 264 264 264 264 263 263 263 264 264 264 263 263 262 260 259 259 259 259 259 258 257 257 259 259 260 259 259 259 259 258 258 258 257 256 255 255 256 257 258 258 258 257 256 255 255 255 255 255 255 255 255 254 253 252 251 251 250 250 250 249 249 249 248 248
264 263 262 262 262 261 262 262 262 262 263 263 262 262 262 263 263 263 263 264 265 265 265 264 264 264 264 264 264 264 264 263 263 263 263 262 261 260 259 259 258 258 257 257 258 258 259 259 259 259 259 259 259 259 258 257 256 255 255 255 256 256 257 257 257 256 256 255 255 255 255 255 255 254 254 253 253 252 251 251 251 250 250 250 250 250
265 265 264 264 263 262 261 261 261 261 262 262 262 262 262 262 262 263 263 263 263 263 263 262 262 263 264 264 264 264 264 265 265 265 264 263 262 261 260 260 259 258 257 256 256 257 258 259 259 259 260 260 259 259 259 259 258 257 256 256 257 257 257 257 257 256 256 256 256 255 255 255 255 255 254 254 254 253 252 252 252 252 252 252 252 252
262 263 263 264 265 264 262 261 262 261 261 260 261 261 262 262 261 261 261 261 261 260 260 260 261 262 263 263 263 263 263 264 264 264 264 263 263 262 261 261 260 260 258 257 256 255 256 257 258 258 259 260 260 260 259 259 259 258 258 258 258 258 258 258 258 257 257 257 256 256 256 255 255 255 255 255 255 255 254 253 253 253 253 253 253 253
259 259 260 262 264 265 263 261 261 262 262 261 261 260 260 261 262 262 262 262 261 260 260 260 260 261 262 262 263 263 263 262 262 262 263 264 264 263 263 262 261 261 260 259 258 257 256 256 256 256 257 258 259 260 260 260 259 259 258 257 257 257 258 258 258 258 258 258 258 258 257 256 256 255 255 255 255 255 255 255 255 254 254 254 254 254
258 257 258 259 262 265 266 265 262 261 261 261 262 262 262 262 262 263 264 264 264 263 262 261 260 259 260 262 264 265 264 264 264 264 263 263 263 263 263 262 261 260 260 260 259 259 258 257 256 256 256 256 256 257 259 259 259 259 259 258 257 257 257 257 257 257 257 257 256 256 256 256 256 256 255 255 255 255 256 256 256 256 255 255 255 255
259 257 256 256 259 262 267 268 267 265 263 262 263 264 264 264 264 263 263 264 265 266 265 263 261 260 260 261 262 262 263 263 263 263 263 263 263 263 263 263 263 262 261 261 260 260 259 258 258 257 257 257 257 256 257 258 258 258 258 258 258 258 257 257 257 257 257 256 255 255 255 255 255 255 255 255 256 256 256 256 256 256 256 256 256 256
261 259 257 256 256 258 262 266 269 270 270 268 267 267 266 266 266 265 264 262 262 263 264 263 262 261 261 260 259 259 260 260 261 261 261 262 262 263 263 263 263 264 264 263 263 262 261 260 260 259 258 258 258 258 258 258 258 258 258 258 257 257 257 257 257 257 257 256 255 254 254 254 253 254 254 255 255 255 255 256 256 256 256 256 256 256
262 261 260 258 257 257 260 263 267 270 272 273 273 272 270 268 267 267 265 263 261 260 260 261 261 261 261 260 261 261 260 260 260 260 260 260 261 262 264 264 265 265 264 264 263 262 261 261 261 260 260 259 259 259 259 258 258 258 258 258 257 256 256 257 257 257 257 257 256 256 255 255 255 254 254 254 254 255 255 255 256 256 256 256 256 256
264 263 262 261 260 260 261 263 265 268 270 272 273 273 272 271 269 268 267 267 265 263 260 260 260 260 260 260 260 262 262 261 261 261 262 262 262 262 263 264 265 265 265 264 263 262 261 261 260 260 259 259 258 258 258 258 258 257 257 257 257 256 255 255 256 256 256 257 257 257 257 257 257 257 256 256 256 255 255 255 256 256 256 256 256 256
265 265 264 263 263 262 263 264 265 267 268 270 271 272 272 272 271 271 270 269 268 266 264 263 261 260 260 259 258 259 260 261 262 263 264 264 264 263 263 263 263 263 264 263 263 261 260 260 259 259 259 259 258 258 257 257 257 257 258 258 257 256 255 254 254 255 255 256 257 257 258 258 258 258 258 258 258 258 257 257 256 256 256 256 256 256
267 267 267 266 265 265 264 264 264 265 266 268 269 271 272 273 273 274 274 272 270 268 267 265 263 261 261 262 261 260 260 262 263 264 264 264 264 264 264 263 262 262 261 262 262 262 261 261 261 260 260 260 260 259 258 257 257 256 257 257 257 257 256 254 254 253 254 254 255 256 257 257 258 259 260 260 259 259 259 258 258 257 257 257 257 257
269 268 268 267 267 266 266 265 265 265 265 266 268 271 273 274 275 275 275 274 272 270 268 265 264 265 265 265 265 264 264 264 264 264 263 264 264 264 264 264 263 263 262 262 262 263 263 264 264 263 262 261 260 259 258 258 256 256 255 255 255 256 256 255 254 254 253 254 255 256 258 259 260 260 260 260 260 260 259 259 259 258 258 258 257 257
271 270 269 269 268 268 269 269 268 268 267 267 268 270 272 274 275 275 274 273 272 271 270 268 268 269 268 266 265 266 266 266 265 265 264 264 264 264 265 265 265 266 265 265 265 265 265 265 265 265 264 263 261 260 258 257 256 255 254 254 254 254 255 255 255 255 254 254 254 256 258 261 263 264 263 262 262 261 261 259 258 258 257 257 257 257
272 272 271 271 270 271 271 271 270 270 270 269 270 271 272 273 273 273 272 271 271 271 271 271 270 270 269 268 267 266 265 265 265 266 266 266 266 266 266 267 267 268 268 268 267 266 266 265 265 265 265 265 263 262 260 258 257 256 254 253 253 252 253 253 254 254 254 254 252 251 250 251 254 260 265 267 266 263 261 259 257 256 256 256 256 256
274 273 272 272 271 272 272 271 271 271 271 272 274 275 274 273 272 271 271 271 272 272 272 271 270 269 268 268 268 268 267 266 266 266 266 266 267 267 267 267 268 268 268 269 269 268 268 267 266 266 265 265 265 264 262 261 260 258 256 254 252 251 251 251 252 253 253 253 252 250 247 245 244 246 252 259 264 264 261 258 255 254 254 254 254 254
276 275 274 274 273 273 273 272 272 271 272 274 275 273 271 269 269 270 271 272 272 272 272 272 271 269 267 267 268 268 268 267 267 267 266 266 266 266 267 267 267 268 268 268 269 269 270 270 270 269 268 267 266 265 264 263 262 260 259 257 256 254 252 251 251 251 252 252 251 250 247 244 242 241 242 245 254 259 259 257 255 253 252 252 252 253
279 279 278 277 276 274 273 272 271 272 273 273 270 268 268 268 269 270 271 271 272 272 272 271 271 270 269 268 267 267 267 267 267 267 267 266 266 265 265 265 266 267 267 268 269 270 270 271 272 272 272 271 270 268 266 264 263 262 261 260 259 257 255 254 252 252 251 250 250 249 247 244 241 240 239 240 244 252 255 255 255 254 253 252 251 251
279 280 280 279 278 276 273 272 271 271 271 269 267 267 268 269 269 269 269 269 269 270 271 271 271 271 271 270 269 268 267 267 266 266 266 265 265 265 264 265 265 266 267 268 268 269 270 270 271 271 271 271 270 268 267 265 264 263 262 262 261 259 257 255 254 253 252 251 249 248 246 244 241 239 238 238 241 247 252 253 253 254 255 255 254 253
278 279 279 279 279 277 275 274 273 272 270 268 267 267 267 266 267 267 267 267 267 268 269 269 270 270 270 270 270 270 269 268 268 267 266 266 266 266 266 266 266 266 266 266 267 267 268 268 268 268 268 268 268 267 266 265 264 263 262 262 262 262 260 258 255 253 252 251 250 249 247 244 242 238 236 237 240 245 250 252 254 255 256 257 259 259
277 277 278 278 278 278 277 276 276 275 273 271 269 267 266 266 266 266 265 266 266 267 267 268 268 269 269 270 270 271 271 271 270 270 269 268 268 268 267 266 266 266 265 265 265 266 266 266 266 266 266 266 266 266 266 265 264 263 262 261 261 261 260 260 258 256 253 251 249 248 247 246 244 241 238 236 239 243 248 252 254 256 257 258 260 262
276 276 276 276 277 278 278 277 277 276 274 272 271 269 268 266 265 264 264 264 265 266 266 267 267 267 268 269 270 270 271 271 271 271 271 270 269 268 267 267 266 265 265 265 264 264 264 264 264 264 264 264 265 265 265 265 264 263 262 261 261 260 259 259 258 257 256 253 250 247 246 245 245 245 243 240 239 242 246 249 252 255 257 259 260 262
275 275 275 276 276 277 277 277 277 276 274 272 271 270 269 267 266 265 265 265 266 266 267 267 267 267 267 267 268 268 268 269 269 269 270 270 269 269 268 268 268 267 267 266 265 265 264 263 263 262 262 261 262 263 263 264 264 264 262 261 260 259 259 258 257 256 255 254 253 251 248 246 245 245 246 246 244 243 244 247 250 253 256 259 260 261
277 277 276 276 276 276 276 276 276 275 274 272 271 269 269 269 268 268 267 267 267 267 267 267 267 267 267 267 267 267 267 267 267 268 269 270 270 270 269 269 268 268 268 267 266 266 266 265 265 264 262 261 260 261 261 262 262 263 262 260 259 259 259 258 257 256 255 254 254 253 251 249 247 245 245 246 246 246 247 248 251 253 256 259 260 261
280 280 279 278 278 277 276 276 275 275 274 272 271 270 270 269 270 270 271 270 269 268 267 266 266 266 266 266 267 267 267 267 266 266 267 269 269 270 269 269 268 268 268 268 268 267 267 267 266 265 264 263 262 261 261 261 261 261 261 260 259 259 258 257 256 256 255 254 253 252 251 250 249 247 245 245 246 248 250 252 254 256 257 259 260 261
281 281 281 280 279 278 278 276 275 275 274 273 272 271 270 270 270 271 272 272 271 269 268 267 267 266 266 266 266 265 265 265 265 264 265 266 267 267 268 268 268 268 268 268 268 267 267 266 266 265 264 263 263 263 263 262 262 262 261 261 260 260 259 258 257 255 254 253 251 250 248 248 248 248 248 248 249 251 252 254 256 257 258 259 260 261
282 282 281 281 280 280 279 278 278 277 276 275 274 272 272 271 271 271 270 270 270 269 268 267 266 265 264 264 264 264 264 264 264 264 264 265 265 265 266 267 267 267 267 267 266 266 265 265 265 265 264 263 263 263 263 263 263 263 263 263 263 262 262 261 259 257 255 253 250 248 247 246 248 249 251 252 252 253 253 253 254 255 256 257 258 260
282 282 282 282 282 281 281 281 281 279 278 277 276 275 274 273 272 270 269 269 269 269 269 268 267 266 265 264 264 264 263 263 264 264 264 264 265 265 264 265 265 265 265 265 265 265 264 263 263 264 264 263 263 262 261 261 261 262 262 263 262 262 262 261 260 258 255 252 250 249 248 248 249 250 252 253 254 254 253 252 252 251 252 254 256 258
280 281 281 282 282 282 282 282 281 279 278 278 278 277 275 274 272 270 269 269 268 268 268 268 267 267 266 265 264 264 264 264 264 265 265 265 265 266 265 264 264 264 265 265 265 265 265 265 264 264 264 263 263 262 262 262 262 262 262 262 262 261 260 260 259 257 256 254 253 251 250 249 249 250 251 252 253 254 253 252 251 250 251 253 256 258
280 280 280 280 280 281 282 282 282 281 280 279 277 275 273 272 271 270 269 269 268 267 267 266 266 265 264 264 263 262 263 264 264 265 266 266 267 267 268 267 267 267 267 267 267 267 267 267 268 267 267 265 265 265 266 266 265 264 264 265 264 263 261 260 259 259 258 257 255 253 251 250 250 251 252 252 252 252 251 251 251 251 252 253 256 259
279 279 280 280 280 282 283 283 281 280 280 279 277 275 273 271 270 269 268 267 266 266 267 267 267 266 266 265 264 262 262 262 262 262 263 264 264 265 266 267 268 268 268 268 268 268 268 269 269 269 268 269 269 269 269 269 268 268 268 267 266 264 263 261 260 259 257 255 253 251 250 249 248 248 249 249 248 248 248 249 250 251 252 254 256 259
278 279 280 281 282 284 283 280 278 278 279 279 278 276 274 272 270 269 268 267 267 267 268 269 269 268 268 267 266 264 263 262 261 260 260 260 260 261 262 263 264 265 266 266 267 267 268 269 268 268 269 270 271 271 270 270 270 269 268 266 265 264 263 261 259 256 254 253 251 249 246 244 242 242 242 242 242 243 245 247 249 251 252 254 257 259
278 280 280 281 283 282 280 278 277 277 279 279 278 277 276 275 273 272 272 271 271 269 268 267 267 267 267 266 265 265 264 263 262 260 260 260 260 259 260 260 261 262 263 264 265 266 267 266 267 267 269 269 269 269 269 269 269 268 266 264 262 261 260 258 256 253 250 248 247 245 243 241 239 238 238 239 240 241 243 246 249 251 253 255 257 260
279 280 281 282 282 280 279 278 277 277 279 279 279 278 277 276 275 275 276 275 273 270 267 265 265 265 264 264 264 264 264 263 262 261 261 260 260 260 260 259 260 260 261 263 264 264 264 264 265 266 266 266 266 266 266 266 265 264 262 260 258 257 257 256 253 249 246 245 244 243 241 240 239 238 238 239 240 241 244 247 251 253 255 257 259 262
280 281 281 281 280 279 279 278 279 279 279 278 277 277 276 276 275 275 275 273 272 270 269 267 265 264 264 263 263 263 263 262 262 261 261 260 260 260 260 260 260 260 260 261 261 260 260 261 262 262 262 261 261 261 261 261 260 259 259 258 256 256 255 253 250 246 243 241 240 241 240 240 239 239 239 240 241 243 246 249 252 254 256 258 260 263